User: anonymous   Login
Location: D?uga
(50.2667°N, 19.7833°E)
Time: 06:11:06
(UTC+00:00)
Language:

UNK - Orbit

View from above orbital plane
View from above orbital plane
View from above satellite
View from above satellite

Ground track
Ground track

The orbit data is extracted from the following two-line orbital elements,

1 27940U 03042B   24205.44092882  .00002070  00000-0  37484-3 0  9999
2 27940  98.3190 357.1238 0013877  26.0154 334.1744 14.67367578112731
Epoch (UTC): 23 July 2024 10:34:56
Eccentricity: 0.0013877
inclination: 98.3190°
perigee height: 660 km
apogee height: 679 km
right ascension of ascending node: 357.1238°
argument of perigee: 26.0154°
revolutions per day: 14.67367578
mean anomaly at epoch: 334.1744°
orbit number at epoch: 11273

The dashed part of the orbit path shows where the satellite is in the earth's shadow,  

DLR